Yatton Keynell, United Kingdom

8:14 AM BST on June 27, 2019 (GMT +0100)
Yatton Keynell

Weather History for 03740 - June, 1999

Change the Weather History Date:

Friday, June 18, 1999

  Actual Average Record
Temperature  
Mean Temperature 58 °F -  
Max Temperature 69 °F 67 °F - ()
Min Temperature 48 °F 51 °F - ()
Degree Days  
Heating Degree Days 6    
Growing Degree Days 8 (Base 50)    
Moisture  
Dew Point 48 °F    
Average Humidity 67    
Maximum Humidity 87    
Minimum Humidity 46    
Precipitation  
Precipitation 0.00 in 0.07 in - ()
Sea Level Pressure  
Sea Level Pressure 30.29 in    
Wind  
Wind Speed 5 mph ()    
Max Wind Speed 13 mph    
Max Gust Speed -    
Visibility 6.2 miles    
Events      
T = Trace of Precipitation, MM = Missing Value Source: Averaged Metar Reports

Daily Weather History Graph

Daily Weather History Graph

Search for Another Location

Airport or City:

Astronomy

Jun. 18, 1999 Rise Set
Actual Time 4:50 AM BST 9:27 PM BST
Civil Twilight 4:02 AM BST 10:15 PM BST
Nautical Twilight 2:48 AM BST 11:30 PM BST
Astronomical Twilight 1:41 AM BST 12:36 AM BST
Moon 10:19 AM BST (6/18) 12:21 AM BST (6/18)
Length of Visible Light 18h 13m
Length of Day
16h 37m
Waxing Crescent, 27% of the Moon is Illuminated
Jun 18
Waxing Crescent
Jun 20
First Quarter
Jun 28
Full
Jul 6
Last Quarter
Jul 13
New

Hourly Weather History & Observations

Time (BST) Temp. Dew Point Humidity Pressure Visibility Wind Dir Wind Speed Gust Speed Precip Events Conditions
12:50 AM 51.8 °F 44.6 °F 76% 30.30 in - North 6.9 mph - N/A   Clear
1:50 AM 50.0 °F 44.6 °F 82% 30.30 in - North 4.6 mph - N/A   Clear
2:50 AM 50.0 °F 44.6 °F 82% 30.30 in - North 3.5 mph - N/A   Clear
3:50 AM 48.2 °F 44.6 °F 87% 30.30 in - Calm Calm - N/A   Clear
4:50 AM 48.2 °F 42.8 °F 82% 30.30 in - North 3.5 mph - N/A   Clear
5:50 AM 48.2 °F 44.6 °F 87% 30.33 in - NNE 3.5 mph - N/A   Clear
6:50 AM 51.8 °F 46.4 °F 82% 30.33 in - Calm Calm - N/A   Clear
7:50 AM 55.4 °F 48.2 °F 77% 30.33 in - Calm Calm - N/A   Clear
8:50 AM 57.2 °F 50.0 °F 77% 30.33 in 6.2 mi South 4.6 mph - N/A   Scattered Clouds
9:50 AM 60.8 °F 51.8 °F 72% 30.33 in 6.2 mi SW 4.6 mph - N/A   Scattered Clouds
10:50 AM 62.6 °F 51.8 °F 68% 30.33 in 6.2 mi WSW 6.9 mph - N/A   Partly Cloudy
11:50 AM 66.2 °F 51.8 °F 60% 30.30 in 6.2 mi South 3.5 mph - N/A   Scattered Clouds
12:50 PM 66.2 °F 50.0 °F 56% 30.30 in 6.2 mi WNW 5.8 mph - N/A   Partly Cloudy
1:50 PM 68.0 °F 50.0 °F 52% 30.27 in 6.2 mi West 6.9 mph - N/A   Partly Cloudy
2:50 PM 69.8 °F 50.0 °F 49% 30.27 in 6.2 mi SW 6.9 mph - N/A   Partly Cloudy
3:50 PM 69.8 °F 50.0 °F 49% 30.27 in 6.2 mi West 8.1 mph - N/A   Partly Cloudy
4:50 PM 69.8 °F 50.0 °F 49% 30.24 in 6.2 mi West 9.2 mph - N/A   Partly Cloudy
5:50 PM 69.8 °F 48.2 °F 46% 30.24 in - WNW 10.4 mph - N/A   Clear
6:50 PM 68.0 °F 48.2 °F 49% 30.24 in - West 12.7 mph - N/A   Clear
7:50 PM 66.2 °F 48.2 °F 52% 30.24 in - WSW 9.2 mph - N/A   Clear
8:50 PM 62.6 °F 42.8 °F 48% 30.24 in - WSW 9.2 mph - N/A   Clear
9:50 PM 59.0 °F 50.0 °F 72% 30.24 in - WSW 8.1 mph - N/A   Clear
10:50 PM 55.4 °F 50.0 °F 82% 30.24 in - SSW 8.1 mph - N/A   Clear